Location: Aalen
(48.8330°N, 10.1000°E)
Time: 18:38:21
(UTC+02:00)

UNISAT 6 - Pass Details

Date: 06 April 2023
Orbit: 599 x 680 km, 97.7° (Epoch: 04 June)

Event Time Altitude Azimuth Distance (km) Brightness Sun altitude
Rises 20:57:57 0° 356° (N) 3,057 ? -10.3°
Reaches altitude 10° 21:01:59 10° 321° (NW) 2,133 ? -11.0°
Maximum altitude 21:03:11 11° 306° (NW) 2,067 ? -11.1°
Drops below altitude 10° 21:04:23 10° 291° (WNW) 2,126 ? -11.3°
Sets 21:08:23 0° 256° (WSW) 3,024 ? -11.9°
